When you browse on this site, cookies collect data to enhance your experience and personalize the content and advertising you see.
Visit our Privacy Policy to learn more. By continuing to use the site, you agree to this use of cookies and data.

Stündliche Wetter Bremen

Heute, 3 Juli, Freitag

Zeit Temperatur Niederschläge Wind Luftdruck Luftfeuchtigkeit
00:00 +12°C° 0 mm 3 m/S 758 mmHg 95%
01:00 +12°C° 0 mm 4 m/S 759 mmHg 97%
02:00 +12°C° 0 mm 3 m/S 759 mmHg 97%
03:00 +11°C° 0 mm 3 m/S 759 mmHg 97%
04:00 +11°C° 0 mm 3 m/S 759 mmHg 97%
05:00 +12°C° 0 mm 3 m/S 759 mmHg 96%
06:00 +13°C° 0 mm 3 m/S 760 mmHg 94%
07:00 +14°C° 0 mm 3 m/S 760 mmHg 94%
08:00 +15°C° 0.1 mm 4 m/S 760 mmHg 89%
09:00 +17°C° 0.1 mm 4 m/S 760 mmHg 85%
10:00 +17°C° 0.1 mm 5 m/S 760 mmHg 81%
11:00 +19°C° 0.3 mm 5 m/S 760 mmHg 79%
12:00 +19°C° 0.3 mm 5 m/S 760 mmHg 78%
13:00 +20°C° 0.3 mm 6 m/S 760 mmHg 76%
14:00 +20°C° 0.3 mm 6 m/S 760 mmHg 75%
15:00 +20°C° 0.3 mm 6 m/S 760 mmHg 75%
16:00 +21°C° 0.3 mm 6 m/S 759 mmHg 74%
17:00 +20°C° 0.1 mm 5 m/S 760 mmHg 77%
18:00 +19°C° 0.1 mm 4 m/S 760 mmHg 80%
19:00 +18°C° 0.1 mm 3 m/S 760 mmHg 83%
20:00 +17°C° 0 mm 3 m/S 760 mmHg 83%
21:00 +17°C° 0 mm 3 m/S 760 mmHg 83%
22:00 +16°C° 0 mm 3 m/S 760 mmHg 83%
23:00 +14°C° 0 mm 4 m/S 760 mmHg 81%

Morgen, 4 Juli, Samstag

Zeit Temperatur Niederschläge Wind Luftdruck Luftfeuchtigkeit
00:00 +14°C° 0 mm 4 m/S 760 mmHg 79%
01:00 +13°C° 0 mm 5 m/S 760 mmHg 78%
02:00 +13°C° 0 mm 5 m/S 759 mmHg 79%
03:00 +13°C° 0 mm 6 m/S 759 mmHg 79%
04:00 +13°C° 0 mm 6 m/S 759 mmHg 80%
05:00 +13°C° 0.1 mm 6 m/S 759 mmHg 82%
06:00 +13°C° 0.1 mm 6 m/S 759 mmHg 83%
07:00 +14°C° 0.1 mm 6 m/S 759 mmHg 85%
08:00 +14°C° 0.1 mm 6 m/S 759 mmHg 86%
09:00 +14°C° 0.1 mm 6 m/S 759 mmHg 88%
10:00 +14°C° 0.1 mm 7 m/S 759 mmHg 89%
11:00 +15°C° 0 mm 7 m/S 759 mmHg 87%
12:00 +16°C° 0 mm 7 m/S 758 mmHg 85%
13:00 +16°C° 0 mm 7 m/S 758 mmHg 83%
14:00 +16°C° 0 mm 7 m/S 758 mmHg 83%
15:00 +16°C° 0 mm 7 m/S 758 mmHg 84%
16:00 +16°C° 0 mm 7 m/S 758 mmHg 84%
17:00 +17°C° 0 mm 7 m/S 758 mmHg 84%
18:00 +17°C° 0 mm 7 m/S 757 mmHg 84%
19:00 +17°C° 0 mm 7 m/S 757 mmHg 85%
20:00 +17°C° 0.1 mm 7 m/S 757 mmHg 86%
21:00 +17°C° 0.1 mm 6 m/S 757 mmHg 88%
22:00 +17°C° 0.1 mm 6 m/S 757 mmHg 89%
23:00 +17°C° 0 mm 6 m/S 757 mmHg 90%

übermorgen, 5 Juli, Sonntag

Zeit Temperatur Niederschläge Wind Luftdruck Luftfeuchtigkeit
00:00 +17°C° 0 mm 6 m/S 757 mmHg 91%
01:00 +17°C° 0 mm 5 m/S 757 mmHg 92%
02:00 +17°C° 0 mm 5 m/S 757 mmHg 92%
03:00 +17°C° 0 mm 5 m/S 756 mmHg 91%
04:00 +17°C° 0 mm 5 m/S 756 mmHg 91%
05:00 +17°C° 0 mm 6 m/S 756 mmHg 90%
06:00 +17°C° 0 mm 6 m/S 756 mmHg 88%
07:00 +19°C° 0 mm 6 m/S 756 mmHg 87%
08:00 +18°C° 0 mm 7 m/S 756 mmHg 85%
09:00 +18°C° 0 mm 8 m/S 756 mmHg 83%
10:00 +20°C° 0 mm 8 m/S 755 mmHg 82%
11:00 +20°C° 0.1 mm 8 m/S 755 mmHg 81%
12:00 +19°C° 0.1 mm 9 m/S 755 mmHg 79%
13:00 +19°C° 0.1 mm 9 m/S 755 mmHg 78%
14:00 +19°C° 0.2 mm 9 m/S 755 mmHg 81%
15:00 +18°C° 0.2 mm 8 m/S 755 mmHg 84%
16:00 +18°C° 0.2 mm 8 m/S 755 mmHg 87%
17:00 +18°C° 0.4 mm 8 m/S 754 mmHg 86%
18:00 +18°C° 0.4 mm 7 m/S 754 mmHg 86%
19:00 +18°C° 0.4 mm 7 m/S 754 mmHg 86%
20:00 +17°C° 0.4 mm 5 m/S 754 mmHg 88%
21:00 +15°C° 0.4 mm 4 m/S 754 mmHg 90%
22:00 +14°C° 0.4 mm 3 m/S 754 mmHg 92%
23:00 +14°C° 0.1 mm 3 m/S 754 mmHg 92%

6 Juli, Montag

Zeit Temperatur Niederschläge Wind Luftdruck Luftfeuchtigkeit
00:00 +13°C° 0.1 mm 4 m/S 754 mmHg 91%
01:00 +13°C° 0.1 mm 4 m/S 754 mmHg 91%
02:00 +12°C° 0.1 mm 5 m/S 754 mmHg 90%
03:00 +12°C° 0.1 mm 5 m/S 754 mmHg 89%
04:00 +10°C° 0.1 mm 6 m/S 754 mmHg 88%
05:00 +11°C° 0 mm 6 m/S 754 mmHg 86%
06:00 +11°C° 0 mm 7 m/S 754 mmHg 84%
07:00 +12°C° 0 mm 8 m/S 754 mmHg 82%
08:00 +13°C° 0.3 mm 8 m/S 755 mmHg 79%
09:00 +15°C° 0.3 mm 9 m/S 755 mmHg 77%
10:00 +16°C° 0.3 mm 9 m/S 755 mmHg 74%
11:00 +16°C° 0.5 mm 9 m/S 756 mmHg 74%
12:00 +16°C° 0.5 mm 9 m/S 756 mmHg 73%
13:00 +16°C° 0.5 mm 9 m/S 757 mmHg 72%
14:00 +16°C° 0.3 mm 8 m/S 757 mmHg 73%
15:00 +16°C° 0.3 mm 8 m/S 758 mmHg 74%
16:00 +16°C° 0.3 mm 8 m/S 758 mmHg 75%
17:00 +15°C° 0.2 mm 7 m/S 759 mmHg 77%
18:00 +15°C° 0.2 mm 6 m/S 759 mmHg 79%
19:00 +14°C° 0.2 mm 5 m/S 760 mmHg 80%
20:00 +13°C° 0 mm 4 m/S 761 mmHg 83%
21:00 +12°C° 0 mm 4 m/S 761 mmHg 86%
22:00 +10°C° 0 mm 3 m/S 762 mmHg 88%
23:00 +10°C° 0 mm 3 m/S 762 mmHg 89%

7 Juli, Dienstag

Zeit Temperatur Niederschläge Wind Luftdruck Luftfeuchtigkeit
00:00 +9°C° 0 mm 3 m/S 762 mmHg 89%
01:00 +9°C° 0 mm 3 m/S 763 mmHg 89%
02:00 +9°C° 0 mm 3 m/S 763 mmHg 89%
03:00 +9°C° 0 mm 3 m/S 763 mmHg 88%
04:00 +9°C° 0 mm 3 m/S 763 mmHg 87%
05:00 +10°C° 0 mm 4 m/S 763 mmHg 85%
06:00 +11°C° 0 mm 4 m/S 763 mmHg 82%
07:00 +12°C° 0 mm 4 m/S 763 mmHg 80%
08:00 +13°C° 0 mm 5 m/S 763 mmHg 76%
09:00 +14°C° 0 mm 5 m/S 763 mmHg 71%
10:00 +15°C° 0 mm 6 m/S 763 mmHg 67%
11:00 +16°C° 0.3 mm 6 m/S 763 mmHg 70%
12:00 +16°C° 0.3 mm 7 m/S 763 mmHg 73%
13:00 +16°C° 0.3 mm 7 m/S 763 mmHg 75%
14:00 +16°C° 0.3 mm 7 m/S 763 mmHg 73%
15:00 +16°C° 0.3 mm 7 m/S 763 mmHg 70%
16:00 +17°C° 0.3 mm 7 m/S 763 mmHg 67%
17:00 +16°C° 0.1 mm 6 m/S 763 mmHg 70%
18:00 +15°C° 0.1 mm 5 m/S 763 mmHg 73%
19:00 +14°C° 0.1 mm 4 m/S 764 mmHg 76%
20:00 +13°C° 0 mm 4 m/S 764 mmHg 81%
21:00 +11°C° 0 mm 3 m/S 765 mmHg 86%
22:00 +10°C° 0 mm 3 m/S 765 mmHg 91%
23:00 +9°C° 0 mm 3 m/S 765 mmHg 92%

8 Juli, Mittwoch

Zeit Temperatur Niederschläge Wind Luftdruck Luftfeuchtigkeit
00:00 +9°C° 0 mm 3 m/S 765 mmHg 93%
01:00 +8°C° 0 mm 3 m/S 765 mmHg 94%
02:00 +8°C° 0 mm 3 m/S 765 mmHg 94%
03:00 +8°C° 0 mm 3 m/S 766 mmHg 94%
04:00 +8°C° 0 mm 3 m/S 766 mmHg 94%
05:00 +9°C° 0 mm 3 m/S 766 mmHg 90%
06:00 +10°C° 0 mm 4 m/S 766 mmHg 86%
07:00 +11°C° 0 mm 4 m/S 766 mmHg 82%
08:00 +13°C° 0 mm 4 m/S 766 mmHg 77%
09:00 +14°C° 0 mm 4 m/S 766 mmHg 72%
10:00 +15°C° 0 mm 4 m/S 766 mmHg 67%
11:00 +17°C° 0 mm 4 m/S 766 mmHg 66%
12:00 +18°C° 0 mm 4 m/S 765 mmHg 64%
13:00 +18°C° 0 mm 4 m/S 765 mmHg 63%
14:00 +19°C° 0 mm 4 m/S 765 mmHg 62%
15:00 +19°C° 0 mm 4 m/S 764 mmHg 62%
16:00 +20°C° 0 mm 4 m/S 764 mmHg 61%
17:00 +19°C° 0 mm 4 m/S 763 mmHg 66%
18:00 +19°C° 0 mm 3 m/S 763 mmHg 70%
19:00 +19°C° 0 mm 3 m/S 763 mmHg 74%
20:00 +18°C° 0 mm 3 m/S 763 mmHg 74%
21:00 +17°C° 0 mm 4 m/S 762 mmHg 74%
22:00 +17°C° 0 mm 4 m/S 762 mmHg 74%
23:00 +17°C° 0 mm 4 m/S 762 mmHg 73%
Mehr zeigen